TimeEET,TemperatureF,Dew PointF,Humidity,Sea Level PressureIn,VisibilityMPH,Wind Direction,Wind SpeedMPH,Gust SpeedMPH,PrecipitationIn,Events,Conditions,WindDirDegrees,DateUTC
12:20 AM,51.8,42.8,71,29.98,6.2,North,8.1,-,N/A,,Scattered Clouds,360,2013-11-15 22:20:00
12:50 AM,51.8,42.8,71,29.98,6.2,North,6.9,-,N/A,,Scattered Clouds,360,2013-11-15 22:50:00
1:20 AM,50.0,41.0,71,29.98,-9999.0,North,5.8,-,N/A,,Clear,360,2013-11-15 23:20:00
1:50 AM,53.6,41.0,62,29.98,-9999.0,North,9.2,-,N/A,,Clear,10,2013-11-15 23:50:00
2:00 AM,54,41,52,29.97,6,North,9.2,,,,,10,2013-11-16 00:00:00
2:20 AM,55.4,41.0,58,29.98,-9999.0,North,6.9,-,N/A,,Clear,10,2013-11-16 00:20:00
2:50 AM,55.4,41.0,58,29.98,-9999.0,ENE,3.5,-,N/A,,Clear,60,2013-11-16 00:50:00
3:20 AM,55.4,44.6,67,29.98,-9999.0,NNE,4.6,-,N/A,,Clear,20,2013-11-16 01:20:00
3:50 AM,55.4,42.8,63,29.98,-9999.0,NNE,4.6,-,N/A,,Clear,20,2013-11-16 01:50:00
4:20 AM,51.8,42.8,71,29.98,-9999.0,NNW,6.9,-,N/A,,Clear,330,2013-11-16 02:20:00
4:50 AM,51.8,41.0,67,29.98,-9999.0,North,5.8,-,N/A,,Clear,350,2013-11-16 02:50:00
5:00 AM,52,42,58,29.98,6,North,5.8,,,,,350,2013-11-16 03:00:00
5:20 AM,51.8,41.0,67,29.98,-9999.0,NE,4.6,-,N/A,,Clear,50,2013-11-16 03:20:00
5:50 AM,53.6,39.2,58,29.98,-9999.0,North,5.8,-,N/A,,Clear,360,2013-11-16 03:50:00
6:20 AM,50.0,39.2,66,29.98,-9999.0,NE,4.6,-,N/A,,Clear,50,2013-11-16 04:20:00
6:50 AM,53.6,41.0,62,30.01,-9999.0,NNE,5.8,-,N/A,,Clear,30,2013-11-16 04:50:00
7:20 AM,53.6,42.8,67,30.01,-9999.0,NNW,3.5,-,N/A,,Clear,330,2013-11-16 05:20:00
7:50 AM,59.0,42.8,55,30.01,-9999.0,North,4.6,-,N/A,,Clear,10,2013-11-16 05:50:00
8:00 AM,59,43,45,30.03,6,North,4.6,,,,,10,2013-11-16 06:00:00
8:20 AM,64.4,42.8,45,30.01,-9999.0,NNE,4.6,-,N/A,,Clear,30,2013-11-16 06:20:00
8:50 AM,66.2,42.8,43,30.01,-9999.0,North,3.5,-,N/A,,Clear,10,2013-11-16 06:50:00
9:20 AM,69.8,41.0,35,30.01,-9999.0,North,4.6,-,N/A,,Clear,10,2013-11-16 07:20:00
9:50 AM,73.4,41.0,31,30.01,-9999.0,ENE,6.9,-,N/A,,Clear,60,2013-11-16 07:50:00
10:20 AM,73.4,41.0,31,30.01,-9999.0,ENE,5.8,-,N/A,,Clear,60,2013-11-16 08:20:00
10:50 AM,73.4,42.8,33,30.01,-9999.0,NNE,4.6,-,N/A,,Clear,30,2013-11-16 08:50:00
11:00 AM,74,42,21,30.00,6,NNE,4.6,,,,,30,2013-11-16 09:00:00
11:20 AM,75.2,42.8,31,29.98,-9999.0,Calm,Calm,-,N/A,,Clear,0,2013-11-16 09:20:00
11:50 AM,77.0,42.8,29,29.98,-9999.0,ENE,3.5,-,N/A,,Clear,60,2013-11-16 09:50:00
12:20 PM,77.0,42.8,29,29.98,-9999.0,ESE,2.3,-,N/A,,Clear,120,2013-11-16 10:20:00
12:50 PM,75.2,42.8,31,29.98,-9999.0,SE,2.3,-,N/A,,Clear,140,2013-11-16 10:50:00
1:20 PM,77.0,42.8,29,29.95,-9999.0,East,2.3,-,N/A,,Clear,90,2013-11-16 11:20:00
1:50 PM,77.0,42.8,29,29.95,-9999.0,ESE,2.3,-,N/A,,Clear,110,2013-11-16 11:50:00
2:00 PM,77,43,19,29.96,6,ESE,2.3,,,,,110,2013-11-16 12:00:00
2:20 PM,77.0,42.8,29,29.95,-9999.0,South,4.6,-,N/A,,Clear,180,2013-11-16 12:20:00
2:50 PM,77.0,42.8,29,29.95,-9999.0,SSW,6.9,-,N/A,,Clear,200,2013-11-16 12:50:00
3:20 PM,75.2,42.8,31,29.95,-9999.0,SW,3.5,-,N/A,,Clear,220,2013-11-16 13:20:00
3:50 PM,71.6,44.6,38,29.95,-9999.0,WSW,4.6,-,N/A,,Clear,240,2013-11-16 13:50:00
4:20 PM,69.8,46.4,43,29.95,-9999.0,WSW,6.9,-,N/A,,Clear,240,2013-11-16 14:20:00
4:50 PM,68.0,48.2,49,29.95,-9999.0,West,4.6,-,N/A,,Clear,270,2013-11-16 14:50:00
5:00 PM,67,49,41,29.96,6,West,4.6,,,,,270,2013-11-16 15:00:00
5:20 PM,66.2,48.2,52,29.95,-9999.0,SSW,3.5,-,N/A,,Clear,200,2013-11-16 15:20:00
5:50 PM,64.4,48.2,56,29.95,-9999.0,WNW,2.3,-,N/A,,Clear,300,2013-11-16 15:50:00
6:20 PM,62.6,48.2,59,29.95,-9999.0,NE,6.9,-,N/A,,Clear,40,2013-11-16 16:20:00
6:50 PM,60.8,46.4,59,29.98,-9999.0,NE,5.8,-,N/A,,Clear,50,2013-11-16 16:50:00
7:20 PM,60.8,46.4,59,29.95,-9999.0,ENE,4.6,-,N/A,,Clear,60,2013-11-16 17:20:00
7:50 PM,60.8,46.4,59,29.95,-9999.0,NE,6.9,-,N/A,,Clear,40,2013-11-16 17:50:00
8:00 PM,61,46,46,29.97,12,NE,6.9,,,,Partly Cloudy,40,2013-11-16 18:00:00
8:20 PM,59.0,44.6,59,29.98,-9999.0,ENE,2.3,-,N/A,,Clear,70,2013-11-16 18:20:00
8:50 PM,60.8,44.6,55,29.98,-9999.0,ENE,3.5,-,N/A,,Clear,60,2013-11-16 18:50:00
9:20 PM,59.0,44.6,59,29.98,-9999.0,North,5.8,-,N/A,,Clear,360,2013-11-16 19:20:00
9:50 PM,57.2,44.6,63,29.98,-9999.0,NNE,5.8,-,N/A,,Clear,30,2013-11-16 19:50:00
10:20 PM,57.2,44.6,63,29.98,-9999.0,NNE,3.5,-,N/A,,Clear,30,2013-11-16 20:20:00
10:50 PM,59.0,42.8,55,29.98,-9999.0,NNW,3.5,-,N/A,,Clear,340,2013-11-16 20:50:00
11:00 PM,60,42,41,29.97,6,NNW,3.5,,,,Partly Cloudy,340,2013-11-16 21:00:00
11:20 PM,59.0,44.6,59,29.98,-9999.0,North,3.5,-,N/A,,Clear,350,2013-11-16 21:20:00
11:50 PM,55.4,42.8,63,29.98,-9999.0,North,2.3,-,N/A,,Clear,350,2013-11-16 21:50:00